Tracking 17694 objects as of 26-May-2016
HD Live streaming from Space Station
objects crossing your sky now

GLOBALSTAR M059

Track GLOBALSTAR M059 now!
10-day predictions
GLOBALSTAR M059 is classified as:


NORAD ID: 25944
Int'l Code: 1999-058B
Perigee: 1,686.9 km
Apogee: 1,689.1 km
Inclination: 52.0 °
Period: 120.0 minutes
Semi major axis: 8058 km
RCS: 2.6566 m2 (large)
Launch date: October 18, 1999
Source: Globalstar (GLOB)
Launch site: TYURATAM MISSILE AND SPACE COMPLEX (TTMTR)
Your satellite tracking list
Your tracking list is empty





NASA's NSSDC Master Catalog

Two Line Element Set (TLE):
1 25944U 99058B   16147.17885606 -.00000087  00000-0 -89787-5 0  9996
2 25944  51.9960 158.5287 0001321 277.2592 124.4611 12.00163833765557
Source of the keplerian elements: AFSPC

N2YO: 637